Weather past 2 weeks in Saint-Pierre, Saint Pierre and Miquelon

Now
58 °F

Low clouds.


Feels Like: 56 °F
Forecast: 52 / 59 °F
Wind: 7 mph from South

Location: Saint-Pierre

Current Time: Sep 18, 2014 at 11:52:07 PM

Latest Report: Sep 18, 2014 at 11:00 PM


Visibility: 25 mi

Pressure: 29.89 "Hg

Humidity: 95%

Dew point: 56 °F

Location of Saint-PierreLocation

Historic Weather in Saint-Pierre — Graph

°F

Saint-Pierre temperature yesterday

Maximum temperature yesterday: 62 °F (at 6:00 PM)
Minimum temperature yesterday: 50 °F (at 2:00 AM)
Average temperature yesterday: 56 °F

Past Weeks' High & Low Weather Summary

 TemperatureHumidityPressure
High72 °F (Sep 4, 1:00 PM)100% (Sep 3, 10:00 PM)30.50 "Hg (Sep 3, 10:00 PM)
Low48 °F (Sep 9, 7:00 AM)44% (Sep 8, 1:00 PM)29.73 "Hg (Sep 7, 6:00 AM)
Average59 °F84%30.04 "Hg
* Reported Sep 3 10:00 PM — Sep 18 10:00 PM, Saint-Pierre, Weather by CustomWeather, © 2014

Note: Actual official high and low records may vary slightly from our data, if they occured in-between our weather recording intervals... More about our weather records

Advertising

Saint-Pierre weather history for previous 24 hours

 ConditionsComfort  
Time TempWeatherWind HumidityBarometerVisibility
10:00 PM
Sep 18
58 °FLow clouds.8 mph95%29.91 "Hg28 mi
9:00 PM58 °FLow clouds.7 mph93%29.93 "Hg6 mi
8:00 PM58 °FOvercast.9 mph89%29.93 "Hg28 mi
7:00 PM59 °FOvercast.9 mph85%29.94 "Hg11 mi
6:00 PM60 °FOvercast.8 mph81%29.94 "Hg25 mi
5:00 PM61 °FOvercast.6 mph77%29.95 "Hg25 mi
4:00 PM62 °FOvercast.5 mph71%29.96 "Hg25 mi
3:00 PM62 °FPartly sunny.6 mph68%29.98 "Hg25 mi
2:00 PM62 °FPartly sunny.5 mph77%29.98 "Hg25 mi
1:00 PM62 °FPartly sunny.5 mph71%29.99 "Hg25 mi
12:00 PM62 °FScattered clouds.5 mph69%30.00 "Hg25 mi
11:00 AM60 °FScattered clouds.2 mph81%30.00 "Hg25 mi
10:00 AM59 °FScattered clouds.3 mph87%30.00 "Hg25 mi
9:00 AM55 °FPartly sunny.1 mph98%29.99 "Hg25 mi
8:00 AM52 °FPartly sunny.2 mph98%29.99 "Hg25 mi
7:00 AM51 °FPassing clouds.1 mph97%29.98 "Hg25 mi
6:00 AM52 °FClear.2 mph96%29.97 "Hg25 mi
5:00 AM52 °FCool.2 mph97%29.97 "Hg25 mi
4:00 AM52 °FCool.6 mph97%29.98 "Hg12 mi
3:00 AM52 °FCool.3 mph96%29.98 "Hg12 mi
2:00 AM52 °FCool.7 mph92%29.97 "Hg37 mi
1:00 AM53 °FCool.5 mph86%29.98 "Hg37 mi
12:00 AM53 °FCool.6 mph83%29.98 "Hg37 mi
11:00 PM
Sep 17
53 °FCool.No wind83%29.96 "Hg37 mi
Weather by CustomWeather, © 2014

See weather overviewHow to use our weather pages